CAPE
1 1 3 10 0 0 0 0 0 0 0 0 0 0 0 0 0 0 0 0 0 0 0 0 0 0 0 0 0 3 7 9 17 10 4 6 32 22
12 1 1 1 2 1 0 0 0 0 0 0 0 0 0 0 1 0 0 0 0 0 0 0 0 0 0 0 0 0 0 1 8 8 11 18 13 15
2 6 7 4 12 4 7 0 0 0 0 0 0 0 0 0 6 0 0 0 0 0 0 0 0 0 0 0 0 0 0 0 3 8 4 10 14 13
1 10 7 17 12 4 4 0 0 0 0 0 0 0 0 0 8 15 2 0 0 0 0 1 0 0 0 0 0 0 0 0 0 0 1 5 7 6
0 0 2 6 9 10 7 1 0 0 0 0 0 0 0 20 19 32 0 2 0 0 1 0 0 0 0 0 0 0 0 0 0 0 0 0 3 6
0 1 1 2 6 0 4 0 2 0 0 0 0 0 0 28 22 11 0 17 8 11 0 0 0 0 0 0 0 0 0 0 0 0 0 0 0 4
0 0 1 5 10 7 0 0 0 0 0 0 2 2 8 23 21 9 2 14 17 6 1 0 0 0 0 0 0 0 0 0 0 0 0 0 0 0
0 0 3 12 15 14 9 2 0 0 0 0 1 2 0 1 21 19 42 18 0 2 0 1 0 1 0 0 0 0 0 0 0 0 0 0 0 3
0 0 0 3 12 5 7 0 0 0 0 0 0 0 0 0 22 42 52 1 1 1 0 0 1 1 1 0 1 0 0 0 0 1 1 1 1 2
0 0 0 0 3 0 0 0 2 0 0 0 0 0 0 8 0 36 3 0 0 0 0 0 0 1 0 0 0 1 1 1 1 1 0 0 0 0
0 0 0 0 0 0 3 3 1 0 0 0 0 0 1 3 0 0 0 0 0 0 0 0 0 0 0 0 1 1 0 0 0 0 0 0 0 0
0 0 0 0 0 0 2 1 0 0 2 0 0 0 0 0 0 0 0 0 0 0 0 0 0 0 0 0 1 1 0 0 0 0 0 0 0 0
0 0 0 0 0 0 0 0 0 0 0 0 0 0 0 0 0 0 0 0 0 0 0 0 0 0 0 0 0 1 0 0 0 0 2 1 0 0
0 0 0 0 0 0 0 0 0 0 0 0 0 0 0 0 0 0 0 0 0 0 0 0 0 0 0 0 0 0 0 1 0 0 0 0 0 0
0 0 0 0 0 0 0 0 0 0 0 0 0 0 0 0 0 0 0 0 0 0 0 0 0 0 0 0 0 1 0 0 1 0 0 0 0 0
0 0 0 0 0 0 0 0 0 0 0 0 0 0 0 0 0 0 0 0 0 0 0 0 0 0 0 0 0 0 0 0 1 1 1 0 0 0
0 0 0 0 0 0 0 0 0 0 0 0 0 0 0 0 0 0 0 0 0 0 0 0 0 0 0 0 0 0 0 0 0 0 0 0 1 1
0 0 0 0 0 0 0 0 0 0 0 0 0 0 0 0 0 0 0 0 0 0 0 0 0 0 0 0 2 0 0 0 0 0 0 0 0 2
0 0 0 0 0 0 0 0 0 0 0 0 0 0 0 0 0 0 0 0 0 0 0 0 0 0 0 0 0 0 0 1 1 0 0 0 0 0
0 0 0 0 0 0 0 0 0 0 0 0 0 0 0 0 0 0 0 0 0 0 0 0 0 0 0 0 0 0 0 0 0 0 1 1 1 0
0 0 0 0 0 0 0 0 0 0 0 0 0 0 0 0 0 0 0 0 0 0 0 0 1 0 0 0 0 0 0 0 0 0 0 0 0 0
0 0 0 0 0 0 0 0 0 0 0 0 0 0 0 0 0 0 0 0 0 0 0 0 0 0 0 0 0 0 0 0 0 0 0 0 0 0
0 0 0 0 0 0 0 0 0 0 0 0 0 0 0 0 0 0 0 0 0 0 0 0 0 0 0 0 0 0 0 0 0 0 0 0 0 0
CIN
-4 0 0 0 0 0 0 0 0 0 0 0 0 0 0 0 0 0 0 0 0 0 0 0 0 0 0 0 0 -55 -48 -28 -29 -14 -13 -14 -3 -5
0 0 0 0 0 -1 0 0 0 0 0 0 0 0 0 0 -8 0 0 0 0 0 0 0 0 0 0 0 0 0 0 -41 -47 -26 -22 -9 -9 -12
0 0 0 0 0 -1 -1 0 0 0 0 0 0 0 0 0 -50 0 0 0 0 0 0 0 0 0 0 0 0 0 0 0 -61 -44 -39 -24 -18 -11
0 0 0 0 0 0 -2 -1 0 0 0 0 0 0 0 0 -59 -35 0 0 0 0 0 0 0 0 0 0 0 0 0 0 0 0 -49 -32 -25 -22
0 0 0 0 0 0 0 0 0 0 0 0 0 0 0 -16 -41 -14 0 0 0 0 0 0 0 0 0 0 0 0 0 0 0 0 0 -34 -31 -22
0 0 0 0 0 0 0 -1 -1 0 0 0 0 0 0 -19 -24 -2 0 0 0 0 0 0 0 0 0 0 0 0 0 0 0 0 0 0 -9 -27
0 0 0 0 0 0 0 0 0 0 0 0 0 0 -7 -6 -6 -1 -1 0 0 0 0 0 0 0 0 0 0 0 0 0 0 0 0 0 0 -11
0 0 0 0 0 0 0 -1 0 0 0 0 -1 0 0 -14 -12 -1 -1 0 0 -1 0 0 0 0 0 0 0 0 0 0 0 0 0 0 0 -41
0 0 0 -2 -2 -1 -2 0 0 0 0 0 0 0 0 0 -4 -3 0 -1 0 0 0 0 0 0 0 0 0 0 0 0 0 0 0 0 0 0
0 0 0 0 -6 -2 -5 0 -6 0 0 0 0 0 0 -27 0 0 -1 0 0 0 0 0 0 0 0 0 0 0 0 0 0 0 0 0 0 0
0 0 0 0 0 0 0 0 0 0 0 0 0 0 -1 -3 0 0 0 0 0 0 0 0 0 0 0 0 0 0 0 0 0 0 0 0 0 0
0 0 0 0 0 0 0 0 0 0 0 0 0 0 0 0 0 0 0 0 0 0 0 0 0 0 0 0 0 0 0 0 0 0 0 0 0 0
0 0 0 0 0 0 0 0 0 0 0 0 0 0 0 0 0 0 0 0 0 0 0 0 0 0 0 0 0 0 0 0 0 0 0 0 0 0
0 0 0 0 0 0 0 0 0 0 0 0 0 0 0 0 0 0 0 0 0 0 0 0 0 0 0 0 0 0 0 0 0 0 0 0 0 0
0 0 0 0 0 0 0 0 0 0 0 0 0 0 0 0 0 0 0 0 0 0 0 0 0 0 0 0 0 0 0 0 0 0 0 0 0 0
0 0 0 0 0 0 0 0 0 0 0 0 0 0 0 0 0 0 0 0 0 0 0 0 0 0 0 0 0 0 0 0 0 0 0 0 0 0
0 0 0 0 0 0 0 0 0 0 0 0 0 0 0 0 0 0 0 0 0 0 0 0 0 0 0 0 0 0 0 0 0 0 0 0 0 0
0 0 0 0 0 0 0 0 0 0 0 0 0 0 0 0 0 0 0 0 0 0 0 0 0 0 0 0 0 0 0 0 0 0 0 0 0 0
0 0 0 0 0 0 0 0 0 0 0 0 0 0 0 0 0 0 0 0 0 0 0 0 0 0 0 0 0 0 0 0 0 0 0 0 0 0
0 0 0 0 0 0 0 0 0 0 0 0 0 0 0 0 0 0 0 0 0 0 0 0 0 0 0 0 0 0 0 0 0 0 0 0 0 0
0 0 0 0 0 0 0 0 0 0 0 0 0 0 0 0 0 0 0 0 0 0 0 0 0 0 0 0 0 0 0 0 0 0 0 0 0 0
0 0 0 0 0 0 0 0 0 0 0 0 0 0 0 0 0 0 0 0 0 0 0 0 0 0 0 0 0 0 0 0 0 0 0 0 0 0
0 0 0 0 0 0 0 0 0 0 0 0 0 0 0 0 0 0 0 0 0 0 0 0 0 0 0 0 0 0 0 0 0 0 0 0 0 0
Wind_Speed
10 10 8 7 7 6 7 4 6 4 4 3 3 2 3 3 3 6 8 13 13 9 4 8 19 23 22 24 24 23 24 22 21 19 18 19 17 17
7 9 8 7 8 7 6 6 5 4 3 4 4 3 2 3 6 6 8 13 13 9 5 3 19 22 21 21 21 20 20 19 18 16 17 16 15 14
9 10 12 12 9 8 9 8 7 6 5 2 1 1 4 4 6 6 9 6 5 8 7 6 21 21 21 21 21 20 20 19 18 16 15 13 14 14
9 10 13 11 14 13 9 11 9 8 6 7 1 2 4 4 8 10 8 6 6 8 7 14 23 21 22 20 21 20 19 19 17 17 15 13 12 13
8 10 12 14 15 12 11 11 10 8 6 3 1 1 4 4 7 8 10 8 8 10 12 21 24 22 22 20 20 20 20 18 17 16 15 13 12 11
8 10 13 16 17 18 14 14 10 9 6 5 4 2 3 5 7 9 8 6 8 11 17 21 22 21 21 20 20 19 19 17 16 15 14 13 12 11
3 3 10 19 26 20 13 14 13 10 8 7 5 3 3 9 10 7 10 9 8 10 13 13 13 11 11 15 15 18 17 16 16 15 14 12 12 11
6 6 9 20 23 24 22 19 14 13 11 8 6 5 4 8 8 12 12 13 7 11 14 11 12 9 6 7 14 17 17 15 16 15 14 13 11 10
7 6 9 9 17 15 17 17 14 12 8 8 9 6 3 9 11 15 13 13 13 12 21 14 11 12 9 11 12 17 15 15 16 15 15 16 16 15
12 10 8 12 12 14 12 11 10 10 9 5 5 3 4 9 18 11 17 17 13 12 18 9 8 10 10 13 27 18 15 16 17 19 20 21 21 20
16 16 11 8 11 22 15 14 13 10 11 11 8 14 7 22 18 19 17 17 12 9 8 12 2 10 10 12 11 27 25 23 21 19 19 21 22 21
17 18 24 17 17 14 16 15 13 11 11 13 13 23 29 19 17 19 15 17 14 10 4 9 1 4 6 6 9 9 11 26 27 23 17 12 11 9
14 13 13 28 27 22 18 12 10 18 20 19 20 18 18 17 13 13 11 15 10 8 1 5 3 4 6 4 5 8 8 8 9 12 24 24 21 10
14 10 12 35 33 28 18 18 15 20 17 17 16 15 16 14 14 16 17 18 13 11 5 6 7 8 6 4 4 4 8 8 7 8 7 13 23 25
12 18 30 30 31 28 28 26 23 16 16 17 16 13 13 13 18 16 19 20 21 18 12 12 16 9 6 6 5 2 3 6 6 6 7 7 6 5
16 19 22 27 28 23 23 21 16 14 16 15 15 11 11 11 13 10 15 13 15 13 17 15 12 11 10 7 6 5 3 3 3 6 7 7 7 7
16 18 19 18 18 17 16 17 14 14 15 13 14 13 12 12 11 9 11 12 14 9 10 11 16 19 16 9 7 6 5 5 4 4 6 7 6 5
20 17 18 17 17 15 15 14 14 17 13 12 13 12 13 12 12 11 11 13 13 9 10 7 9 11 7 12 19 6 5 4 3 4 3 4 3 5
19 17 16 16 14 14 14 14 15 13 13 13 13 12 12 12 12 12 11 12 11 9 6 2 3 3 7 4 2 18 4 4 4 6 5 4 3 2
17 16 15 14 14 15 14 14 13 13 14 13 13 12 11 12 12 11 10 11 10 8 9 8 6 5 5 5 6 2 13 3 2 3 3 4 3 3
14 15 14 13 13 13 13 14 15 14 12 12 12 12 11 13 12 12 13 14 12 8 9 9 7 8 9 8 5 3 4 11 7 0 2 3 2 2
12 13 12 12 12 13 13 13 13 13 12 12 12 12 12 11 10 11 10 11 10 9 8 4 4 2 5 6 6 4 2 2 3 4 5 3 3 1
10 10 10 10 10 11 11 12 13 12 12 11 11 11 10 11 9 11 10 9 8 6 6 7 6 7 6 5 5 3 4 1 0 2 3 4 4 4
Wind_Direction
230 211 209 205 198 188 194 170 182 205 226 263 249 281 245 271 218 142 147 158 150 187 193 34 153 142 143 142 140 141 139 143 142 140 142 143 151 147
230 200 202 199 192 192 197 191 189 166 203 202 227 254 279 217 176 148 150 150 156 139 119 357 150 138 139 130 135 130 133 130 132 133 126 132 139 140
214 211 205 192 195 192 197 195 195 183 200 289 250 328 249 216 159 146 143 131 114 145 141 223 134 136 131 126 130 126 126 127 128 130 126 134 135 130
222 209 204 190 189 189 193 192 190 193 187 217 327 329 248 189 151 132 134 122 140 169 173 168 129 129 126 129 124 128 124 122 127 124 128 126 130 128
222 207 197 186 185 179 185 186 188 189 184 145 195 292 244 183 138 130 132 147 167 144 168 151 128 129 126 127 124 124 121 124 127 122 124 123 118 116
232 216 193 182 177 177 183 185 178 179 168 184 196 261 260 151 134 144 129 145 138 161 157 141 133 123 122 120 122 126 123 126 122 123 123 121 113 109
357 55 142 169 175 174 179 178 173 171 169 178 188 210 207 148 146 143 155 146 146 146 130 131 126 120 123 114 118 120 120 121 120 121 116 114 109 109
30 54 144 154 166 169 180 178 179 171 171 174 187 199 214 154 143 152 165 154 126 141 115 92 88 60 64 117 112 114 115 119 116 112 114 114 115 119
48 65 103 147 154 162 156 161 169 164 179 174 184 184 168 181 160 152 156 126 97 119 101 72 76 63 48 39 71 112 117 118 109 102 94 85 77 72
49 60 82 127 152 159 156 156 168 179 194 193 198 208 226 179 159 137 113 101 87 95 110 88 70 69 60 54 44 63 76 90 98 99 96 92 85 74
47 50 60 86 142 160 167 170 179 201 218 208 233 243 235 115 126 117 119 106 94 80 70 101 102 90 58 43 42 54 67 74 78 87 96 102 98 90
51 50 50 72 77 118 137 146 152 168 156 154 151 123 104 101 105 108 115 110 119 101 353 91 148 102 72 19 34 36 61 64 69 68 68 77 87 97
45 47 52 70 70 73 85 100 106 109 112 121 91 87 83 80 71 72 92 104 109 96 95 109 94 79 74 112 37 29 39 48 64 66 63 63 62 72
43 43 56 67 67 66 70 81 118 103 91 89 85 81 82 80 74 72 73 69 59 83 84 100 98 104 100 98 93 33 39 38 51 62 62 65 66 64
49 57 60 62 63 66 68 70 75 85 88 84 83 78 84 97 98 90 84 87 66 49 43 76 103 88 82 100 120 79 91 24 41 69 62 57 56 34
40 47 56 60 58 55 55 56 64 74 82 88 85 81 82 85 83 83 84 87 77 57 43 49 72 98 91 72 103 115 63 107 46 67 79 68 59 52
55 52 46 48 53 50 50 54 60 68 75 81 88 91 86 84 72 75 76 80 90 97 78 68 71 73 68 76 77 68 86 85 76 94 84 79 46 36
55 50 50 49 50 51 55 57 54 59 61 74 81 86 85 83 86 81 87 88 96 96 96 98 114 108 80 61 45 80 65 75 58 59 49 80 76 38
56 51 50 48 50 53 57 57 59 53 59 63 69 72 79 81 86 84 84 90 89 90 72 36 41 69 115 106 68 29 66 57 73 58 49 51 89 70
49 51 53 50 47 49 50 55 62 58 58 62 65 71 78 85 83 81 85 93 89 84 74 43 38 35 97 138 126 108 32 100 100 109 111 83 70 120
43 46 48 52 56 59 61 60 58 56 56 62 63 66 70 73 76 78 79 80 84 76 74 70 57 67 104 100 85 92 48 41 51 312 152 119 176 199
42 47 46 48 50 54 55 59 63 65 69 69 67 64 64 70 76 85 76 81 78 73 77 61 65 15 44 87 118 115 118 35 33 57 64 86 159 212
44 45 43 45 48 55 59 62 64 64 63 65 67 70 72 77 76 79 85 84 92 103 100 84 70 63 71 95 102 92 97 87 55 357 323 221 225 238